FW1436 Weather Reports


time (UTC)temp
C
wind
direction
speed
KPH
gust
KPH
rain 1hr
cm
rain 24hr
cm
rain mn
cm
humidity
%
barometer
mb
20260510120044 11 319 6.4 16.1 0.00 0.00 0.00 93 1010.1
20260510114543 10 226 1.6 14.5 0.00 0.00 0.00 93 1010.2
20260510113042 10 257 6.4 22.5 0.00 0.00 0.00 91 1010.2
20260510111554 11 243 4.8 25.7 0.00 0.00 0.00 92 1010.1
20260510110045 11 303 3.2 19.3 0.00 0.00 0.00 94 1009.8
20260510104551 10 271 3.2 17.7 0.00 0.00 0.00 93 1010.1
20260510103038 10 295 14.5 30.6 0.00 0.00 0.00 88 1010.1
20260510101538 13 193 3.2 20.9 0.00 0.00 0.00 80 1009.2
20260510100137 13 162 6.4 19.3 0.00 0.00 0.00 79 1009.3
20260510094539 13 244 3.2 17.7 0.00 0.00 0.00 82 1009.5
20260510093033 13 64 3.2 16.1 0.00 0.00 0.00 83 1009.6
20260510091533 13 193 3.2 22.5 0.00 0.00 0.00 82 1009.8
20260510090029 12 287 4.8 14.5 0.00 0.00 0.00 87 1009.9
20260510084524 12 181 3.2 17.7 0.00 0.00 0.00 91 1010.1
20260510083022 11 217 3.2 20.9 0.00 0.00 0.00 93 1010.2
20260510081519 11 207 1.6 12.9 0.00 0.00 0.00 96 1010.1
20260510080018 11 245 4.8 14.5 0.00 0.00 0.00 96 1010.3
20260510074516 10 142 1.6 6.4 0.00 0.00 0.00 96 1010.4
20260510073012 10 110 0.0 0.0 0.00 0.00 0.00 96 1010.4
20260510071513 10 131 0.0 0.0 0.00 0.00 0.00 96 1010.3
20260510070009 10 131 0.0 1.6 0.00 0.00 0.00 96 1010.3
20260510064507 9 136 0.0 0.0 0.00 0.00 0.00 96 1010.3
20260510063005 9 136 0.0 0.0 0.00 0.00 0.00 96 1010.2
20260510061505 9 145 0.0 0.0 0.00 0.00 0.00 96 1010.3
20260510060006 8 145 0.0 0.0 0.00 0.00 0.00 96 1009.9
20260510054504 8 134 0.0 0.0 0.00 0.00 0.00 96 1010.0
20260510053002 8 134 0.0 0.0 0.00 0.00 0.00 96 1010.0
20260510051502 8 134 0.0 0.0 0.00 0.00 0.00 96 1009.8
20260510050002 8 134 0.0 0.0 0.00 0.00 0.00 96 1009.9
20260510044501 8 266 0.0 0.0 0.00 0.00 0.00 96 1010.0
20260510043144 8 266 0.0 0.0 0.00 0.00 0.00 96 1010.0
20260510041559 8 300 0.0 3.2 0.00 0.00 0.00 96 1010.0
20260510040059 8 191 0.0 0.0 0.00 0.00 0.00 96 1010.0
20260510034558 8 191 0.0 0.0 0.00 0.00 0.00 96 1009.9
20260510033057 8 191 0.0 0.0 0.00 0.00 0.00 96 1010.1
20260510031626 8 195 0.0 3.2 0.00 0.00 0.00 96 1010.2
20260510030054 8 201 0.0 0.0 0.00 0.00 0.00 95 1010.3
20260510024552 8 241 0.0 3.2 0.00 0.00 0.00 95 1010.4
20260510023058 9 210 0.0 3.2 0.00 0.00 0.00 95 1010.5
20260510021550 9 238 0.0 3.2 0.00 0.00 0.00 96 1010.5
20260510020049 9 288 0.0 1.6 0.00 0.00 0.00 95 1010.4
20260510014545 9 245 0.0 3.2 0.00 0.00 0.00 95 1010.4
20260510013041 9 261 0.0 6.4 0.00 0.00 0.00 95 1010.4
20260510011545 9 235 0.0 6.4 0.00 0.00 0.00 95 1010.5
20260510010034 9 234 0.0 4.8 0.00 0.00 0.00 95 1010.6
20260510004532 9 260 1.6 8.0 0.00 0.00 0.00 95 1010.6
20260510003028 9 285 1.6 4.8 0.00 0.00 0.00 95 1010.6
20260510001526 9 250 0.0 9.7 0.00 0.00 0.00 95 1010.7
20260510000026 9 286 1.6 9.7 0.00 0.00 0.00 95 1010.7
20260509234525 9 219 1.6 11.3 0.00 0.00 0.00 95 1010.7
20260509233023 9 238 0.0 4.8 0.00 0.00 0.00 95 1010.8
20260509231522 9 252 0.0 4.8 0.00 0.00 0.00 95 1010.8
20260509230021 9 345 3.2 11.3 0.00 0.00 0.00 94 1010.7
20260509224520 9 258 3.2 11.3 0.00 0.00 0.00 94 1010.5
20260509223022 9 309 3.2 14.5 0.00 0.00 0.00 94 1010.5
20260509221515 9 272 1.6 6.4 0.00 0.00 0.00 94 1010.4
20260509220011 10 229 0.0 9.7 0.00 0.00 0.00 94 1010.2
20260509214509 10 254 0.0 9.7 0.00 0.00 0.00 94 1009.8
20260509213008 10 274 4.8 11.3 0.00 0.00 0.00 93 1009.6
20260509211507 10 284 1.6 16.1 0.00 0.00 0.00 93 1009.8
20260509210004 10 295 6.4 22.5 0.00 0.00 0.00 92 1009.6
20260509204504 10 276 8.0 25.7 0.00 0.00 0.00 90 1009.5
20260509203001 12 124 0.0 1.6 0.00 0.00 0.00 86 1008.0
20260509201501 12 153 1.6 8.0 0.00 0.00 0.00 85 1007.7
20260509200104 12 324 0.0 14.5 0.00 0.00 0.00 85 1007.5
20260509194601 12 258 1.6 8.0 0.00 0.00 0.00 84 1007.5
20260509193058 12 171 0.0 0.0 0.00 0.00 0.00 88 1007.1
20260509191600 12 171 0.0 3.2 0.00 0.00 0.00 87 1006.9
20260509190104 13 142 1.6 8.0 0.00 0.00 0.00 87 1006.5
20260509184558 13 98 1.6 8.0 0.00 0.00 0.00 87 1006.4
20260509183057 13 125 1.6 4.8 0.00 0.00 0.00 84 1006.7
20260509181608 15 125 0.0 6.4 0.00 0.00 0.00 80 1006.8
20260509180055 15 133 1.6 6.4 0.00 0.00 0.00 77 1006.7
20260509174555 15 148 1.6 14.5 0.00 0.00 0.00 77 1006.7
20260509173106 15 219 1.6 11.3 0.00 0.00 0.00 80 1006.7
20260509171606 14 150 3.2 14.5 0.00 0.00 0.00 82 1006.7
20260509170053 15 177 4.8 11.3 0.00 0.00 0.00 77 1006.7
20260509164551 15 134 0.0 4.8 0.00 0.00 0.00 77 1006.2
20260509163058 16 137 0.0 8.0 0.00 0.00 0.00 76 1006.6
20260509161550 16 153 1.6 8.0 0.00 0.00 0.00 77 1006.4
20260509160051 16 295 3.2 9.7 0.00 0.00 0.00 76 1006.5
20260509154545 15 84 1.6 6.4 0.00 0.00 0.00 87 1006.6
20260509153044 13 139 0.0 4.8 0.00 0.00 0.00 92 1006.8
20260509151544 12 138 0.0 4.8 0.00 0.00 0.00 90 1007.2
20260509150041 13 167 0.0 3.2 0.00 0.00 0.00 89 1007.2
20260509144540 13 114 0.0 11.3 0.00 0.00 0.00 88 1007.2
20260509143039 13 43 3.2 11.3 0.00 0.00 0.00 89 1007.0
20260509141537 13 128 3.2 9.7 0.00 0.00 0.00 88 1007.2
20260509140038 13 64 0.0 6.4 0.00 0.00 0.00 93 1007.6
20260509134548 13 183 1.6 8.0 0.00 0.00 0.00 95 1007.6
20260509133134 12 150 0.0 6.4 0.00 0.00 0.00 95 1008.0
20260509131535 11 315 0.0 1.6 0.00 0.00 0.00 95 1008.4
20260509130033 11 305 0.0 6.4 0.00 0.00 0.00 94 1008.2
20260509124532 11 265 3.2 9.7 0.00 0.00 0.00 94 1007.9
20260509123032 11 310 1.6 4.8 0.00 0.00 0.00 94 1007.6
20260509121537 11 314 4.8 11.3 0.00 0.00 0.00 93 1008.1